Regional Weather Roundup
Issued by NWS Green Bay, WI

Home | Current Version | Previous Version | Graphics & Text | Print | Product List | Glossary Off
Versions: 1 2 3 4 5 6 7 8 9 10 11 12 13 14 15 16 17 18 19 20 21 22 23 24 25 26 27 28 29 30 31 32 33 34 35 36 37 38 39 40 41 42 43 44 45 46 47 48 49 50

000
ASUS43 KGRB 300559
RWRGRB

NORTH-CENTRAL AND NORTHEAST WISCONSIN REGIONAL WEATHER ROUNDUP
NATIONAL WEATHER SERVICE GREEN BAY WI
100 AM CDT TUE SEP 30 2014

WIZ005-009-010>012-018-019-300700-
NORTH CENTRAL WISCONSIN

CITY           SKY/WX    TMP DP  RH WIND       PRES   REMARKS
IRONWOOD       NOT AVBL
MANITOWISH WTR NOT AVBL
ARBOR VITAE    NOT AVBL
EAGLE RIVER    NOT AVBL
LAND O LAKES   NOT AVBL
RHINELANDER    CLOUDY    37  35  92 VRB7      30.14F
PHILLIPS       CLOUDY    38  36  91 NE13      30.14R
ANTIGO         NOT AVBL
TOMAHAWK       NOT AVBL
MERRILL        NOT AVBL
$$

WIZ013-073-300700-
NORTHEAST WISCONSIN

CITY           SKY/WX    TMP DP  RH WIND       PRES   REMARKS
IRON MOUNTAIN  CLOUDY    41  38  89 N9        30.11F
MARINETTE      NOT AVBL
$$

WIZ017-030-035>037-045-300700-
CENTRAL WISCONSIN

CITY           SKY/WX    TMP DP  RH WIND       PRES   REMARKS
MEDFORD        NOT AVBL
WAUSAU         CLOUDY    41  36  82 NE7       30.12R
MOSINEE        CLOUDY    41  37  87 NE9       30.12S
MARSHFIELD     CLOUDY    42  37  82 NE12      30.10S
WISC RAPIDS    CLOUDY    45  39  79 E8        30.11F
STEVENS POINT  NOT AVBL
WAUPACA        NOT AVBL
SHAWANO        CLOUDY    44  39  81 N10       30.12F
CLINTONVILLE   NOT AVBL
$$

WIZ038-039-048-051-300700-
FOX VALLEY

CITY           SKY/WX    TMP DP  RH WIND       PRES   REMARKS
NWS GREEN BAY  CLOUDY    43  38  82 N17G23    30.11S
APPLETON       NOT AVBL
OSHKOSH        CLOUDY    46  39  76 N18       30.10R
FOND DU LAC    CLOUDY    46  40  79 NE15      30.09S
$$

WIZ022-050-052-300700-
EAST CENTRAL WISCONSIN

CITY           SKY/WX    TMP DP  RH WIND       PRES   REMARKS
STURGEON BAY   NOT AVBL
MANITOWOC      NOT AVBL
SHEBOYGAN      NOT AVBL
$$

LMZ563-521-522-541>543-300700-
LAKESHORE

STATION/POSITION TIME  TEMP    WIND        PRES    VSBY  WAVE
                       AIR SEA DIR/SP/G                  HT/PER
                 (UTC) (F)     (DEG/KT/KT) (MB)    (MI)  (FT/S)
SHEBOYGAN LKSHOR 0500   46 55   10/ 17/ 21 1018.8R
KEWAUNEE LKSHORE 0500   45     340/ 10/ 15 1017.8R
NORTHPORT PIER   0500   47     350/ 19/ 27 1018.6S
N MID LAKE BUOY  0500   47 58  350/ 19/ 25 1017.3F         4/ 5
S GREEN BAY BUOY 0500   47     VRB 19/ 25  1020.3
CHAMBERS ISLAND  0500   46     340/ 19/ 27 1019.3R
MENOMINEE LKSHOR 0500   45     340/ 14/ 18 1020.0R
$$


USA.gov is the U.S. government's official web portal to all federal, state and local government web resources and services.